Regional Weather Roundup
Issued by NWS

Home | Current Version | Previous Version | Text Only | Print | Product List | Glossary Off
Versions: 1 2 3 4 5 6 7 8 9 10 11 12 13 14 15 16 17 18 19 20 21 22 23 24 25 26 27 28 29 30 31 32 33 34 35 36 37 38 39 40 41 42 43 44 45 46 47 48 49 50

000
ASUS45 KABQ 170610
RWRNM
NEW MEXICO REGIONAL WEATHER ROUNDUP
NATIONAL WEATHER SERVICE ALBUQUERQUE NM
1200 AM MDT TUE OCT 17 2017

NOTE: "FAIR" MEANS FEW OR NO CLOUDS BELOW 12,000 FEET AGL WITH NO
       SIGNIFICANT WEATHER OR OBSTRUCTIONS TO VISION.

      THIS PRODUCT IS RELEASED AS TWO VERSIONS.  ONE VERSION NEAR
      THE TOP OF THE HOUR CONTAINING PRELIMINARY DATA FROM ALBUQUERQUE
      AND OTHER STATIONS.  A FINAL VERSION WITH ADDITIONAL DATA IS
      ISSUED ABOUT 10 MINUTES AFTER THE HOUR.

NMZ501-503-504-510>518-170700-
NORTHWEST PLATEAU/NORTHCENTRAL MOUNTAINS

CITY           SKY/WX    TMP DP  RH WIND       PRES   REMARKS
FARMINGTON     FAIR      40  14  34 E5        30.35S
6HR MIN TEMP:  40; 6HR MAX TEMP:  69;

LOS ALAMOS     FAIR      58  11  16 CALM      30.44S
SANTA FE       FAIR      54  24  31 N3        30.39S
6HR MIN TEMP:  40; 6HR MAX TEMP:  65;

TAOS           FAIR      39  17  41 N7        30.46F WCI  34
ANGEL FIRE     FAIR      28  19  68 CALM      30.50S

$$
NMZ402-403-502-505>509-170700-
WESTCENTRAL MOUNTAINS/SOUTHWEST MOUNTAINS

CITY           SKY/WX    TMP DP  RH WIND       PRES   REMARKS
GALLUP         FAIR      44  15  31 CALM      30.41S
6HR MIN TEMP:  37; 6HR MAX TEMP:  74;

GRANTS         FAIR      38  22  53 NW7       30.44S WCI  33
SILVER CITY    FAIR      49  39  69 N7        30.38S

$$
NMZ407-409-411-412-170700-
SOUTHERN DESERTS

CITY           SKY/WX    TMP DP  RH WIND       PRES   REMARKS
DEMING         FAIR      58  41  53 NE6       30.32F
6HR MIN TEMP:  58; 6HR MAX TEMP:  76;

LAS CRUCES     FAIR      59  38  45 S6        30.33S
HOLLOMAN AFB   FAIR      53  33  46 CALM      30.33F
ALAMOGORDO     FAIR      55  37  50 E8        30.32F
T OR C         FAIR      58  38  47 W6        30.33F
6HR MIN TEMP:  58; 6HR MAX TEMP:  75;


$$
NMZ519>523-170700-
CENTRAL VALLEYS/CENTRAL HIGHLANDS

CITY           SKY/WX    TMP DP  RH WIND       PRES   REMARKS
ALBUQUERQUE    FAIR      57  24  28 CALM      30.36F
6HR MIN TEMP:  55; 6HR MAX TEMP:  70;

DOUBLE EAGLE   FAIR      42  24  48 CALM      30.39S
MORIARTY ARPT  FAIR      34  29  82 NE5       30.41S WCI  30
6HR MIN TEMP:  34; 6HR MAX TEMP:  70;

CLINES CORNERS FAIR      42  21  43 W10       30.43F
6HR MIN TEMP:  42; 6HR MAX TEMP:  64;

BELEN          FAIR      48  32  53 S6        30.35F
6HR MIN TEMP:  48; 6HR MAX TEMP:  69;

SOCORRO        FAIR      54  30  40 S8        30.33F
6HR MIN TEMP:  54; 6HR MAX TEMP:  71;


$$
NMZ524>526-539-540-170700-
SOUTHCENTRAL MOUNTAINS

CITY           SKY/WX    TMP DP  RH WIND       PRES   REMARKS
RUIDOSO        FAIR      46  21  36 SW10      30.44F

$$
NMZ527>531-170700-
NORTHEAST HIGHLANDS/NORTHEAST PLAINS

CITY           SKY/WX    TMP DP  RH WIND       PRES   REMARKS
LAS VEGAS      FAIR      52  13  21 NW6       30.37F
6HR MIN TEMP:  43; 6HR MAX TEMP:  63;

RATON          FAIR      38  31  76 NE8       30.32F WCI  32
6HR MIN TEMP:  38; 6HR MAX TEMP:  65;

CLAYTON        FAIR      48  36  63 SW13      30.22F
6HR MIN TEMP:  47; 6HR MAX TEMP:  63;


$$
NMZ532>537-170700-
EASTCENTRAL PLAINS

CITY           SKY/WX    TMP DP  RH WIND       PRES   REMARKS
SANTA ROSA     FAIR      44  36  72 CALM      30.29S
TUCUMCARI      FAIR      55  34  45 SW13      30.23F
6HR MIN TEMP:  52; 6HR MAX TEMP:  70;

CANNON AFB     FAIR      49  37  62 W8        30.30F
6HR MIN TEMP:  48; 6HR MAX TEMP:  63;

CLOVIS AIRPORT FAIR      43  38  82 SW9       30.30F

$$
NMZ028-029-538-170700-
SOUTHEAST PLAINS

CITY           SKY/WX    TMP DP  RH WIND       PRES   REMARKS
ROSWELL        FAIR      50  38  63 S3        30.30F
6HR MIN TEMP:  47; 6HR MAX TEMP:  69;

ARTESIA        FAIR      48  34  57 MISG      30.30F
CARLSBAD       FAIR      50  38  63 S9        30.29F
6HR MIN TEMP:  50; 6HR MAX TEMP:  67;

HOBBS          FAIR      43  36  75 W3        30.32F


$$




USA.gov is the U.S. government's official web portal to all federal, state and local government web resources and services.